"Pseudo-MPEC" for P10Lpcg

Created 2019 Jan 27 1:18:29 UT using Find_Orb

Click here for an explanation of pseudo-MPECs

 
 Astrometry: 
     P10Lpcg  C2019 01 1166#Astrometry@_T7^c9#K=cWWredacted;krftcQHmTcN\e_@$mF51
     P10Lpcg  C2019 01 111B,Oclick6cSM2d^*xXnP'a05$_hereqX$1R(X%dm;NGH!33sq=rF51
     P10Lpcg  C2019 01 11PeH12forF_qr=O)pXah]5xT\F/J3explanation(A+Kp\wi]\:USF51
     P10Lpcg ^C2019 01 12.33777506 58 40.163+54 17 23.51   ~1CAI       VNEOCP568
     P10Lpcg ^C2019 01 12.33872506 58 40.049+54 17 20.36   ~1CAI 21.89GVNEOCP568
     P10Lpcg ^C2019 01 12.33968106 58 39.929+54 17 17.18   ~1CAI 21.83GVNEOCP568

Station data:
(568) Mauna Kea  (N19.826116 W155.472200)  US/Hawaii.
(F51) Pan-STARRS 1, Haleakala  (N20.707235 W156.255910)  US/Hawaii.
   Observers N. Primak, A. Schultz, S. Watters, J. Thiel, T. Goggia. Measurer
   PS1 Science Consortium. 1.8-m Ritchey-Chrétien + CCD.

Orbital elements:  P10Lpcg
   Perihelion 2018 Nov 7.244792 +/- 6.12 TT =  5:52:30 (JD 2458429.744792)
Epoch 2019 Jan 12.0 TT = JDT 2458495.5   Earth MOID: 0.0709   Ve: 0.0090
M  28.81776650 +/- 13               Ma: 0.0408                AutoNEOCP
n   0.43825831 +/- 0.148            Peri.  317.00495 +/- 23
a   1.71652161 +/- 0.387            Node    55.27851 +/- 22
e   0.6087202 +/- 0.134             Incl.    6.91173 +/- 1.8
P   2.25/821.42d           H 24.1   G  0.15   U 11.5  
q 0.67164021 +/- 0.0716    Q 2.76140301 +/- 0.763
From 6 observations 2019 Jan. 11-12 (21.2 hr); mean residual 0".02
Residuals in arcseconds: 
190111 F51  .00   .00     190111 F51  .00   .01+    190112 568  .02+  .00     
190111 F51  .00   .01-    190112 568  .04-  .03-    190112 568  .02+  .02+    

Ephemerides (geocentric):
Date (UTC) HH   RA              Dec         delta   r     elong  mag " sig PA
---- -- -- --  -------------   -----------  ------ ------ -----  --- ---- ---
2019 01 27 01  06 49 52.877   +44 55 55.63  .38374 1.3195 145.7 23.7 1177   6
2019 01 27 02  06 49 53.032   +44 54 50.27  .38424 1.3199 145.7 23.7 1181   6
2019 01 27 03  06 49 53.193   +44 53 45.02  .38474 1.3204 145.7 23.7 1184   6
2019 01 27 04  06 49 53.360   +44 52 39.87  .38523 1.3208 145.7 23.7 1188   6
2019 01 27 05  06 49 53.533   +44 51 34.83  .38573 1.3212 145.7 23.7 1192   6
2019 01 27 06  06 49 53.712   +44 50 29.90  .38623 1.3216 145.6 23.7 1196   6
2019 01 27 07  06 49 53.897   +44 49 25.07  .38672 1.3220 145.6 23.7 1200   6
2019 01 27 08  06 49 54.088   +44 48 20.34  .38722 1.3224 145.6 23.7 1204   6
2019 01 27 09  06 49 54.284   +44 47 15.72  .38772 1.3228 145.6 23.8 1207   6
2019 01 27 10  06 49 54.487   +44 46 11.21  .38822 1.3232 145.6 23.8 1211   5
2019 01 27 11  06 49 54.695   +44 45 06.79  .38871 1.3236 145.5 23.8 1215   5
2019 01 27 12  06 49 54.909   +44 44 02.49  .38921 1.3240 145.5 23.8 1219   5
2019 01 27 13  06 49 55.130   +44 42 58.28  .38971 1.3244 145.5 23.8 1223   5
2019 01 27 14  06 49 55.355   +44 41 54.18  .39021 1.3248 145.5 23.8 1227   5
2019 01 27 15  06 49 55.587   +44 40 50.18  .39071 1.3252 145.5 23.8 1230   5
2019 01 27 16  06 49 55.825   +44 39 46.28  .39121 1.3256 145.4 23.8 1234   5
2019 01 27 17  06 49 56.068   +44 38 42.48  .39171 1.3260 145.4 23.8 1238   5
2019 01 27 18  06 49 56.317   +44 37 38.79  .39221 1.3264 145.4 23.8 1242   5
2019 01 27 19  06 49 56.572   +44 36 35.20  .39271 1.3268 145.4 23.8 1246   5
2019 01 27 20  06 49 56.832   +44 35 31.71  .39321 1.3272 145.4 23.8 1249   5
2019 01 27 21  06 49 57.098   +44 34 28.31  .39371 1.3276 145.3 23.8 1253   5
2019 01 27 22  06 49 57.370   +44 33 25.02  .39421 1.3280 145.3 23.8 1257   5
2019 01 27 23  06 49 57.648   +44 32 21.83  .39471 1.3284 145.3 23.8 1261   5
2019 01 28 00  06 49 57.931   +44 31 18.74  .39521 1.3288 145.3 23.8 1265   5
2019 01 28 01  06 49 58.220   +44 30 15.75  .39571 1.3291 145.2 23.8 1268   5
2019 01 28 02  06 49 58.515   +44 29 12.86  .39621 1.3295 145.2 23.8 1272   5
2019 01 28 03  06 49 58.815   +44 28 10.07  .39671 1.3299 145.2 23.8 1276   5
2019 01 28 04  06 49 59.121   +44 27 07.37  .39721 1.3303 145.2 23.8 1280   5
2019 01 28 05  06 49 59.433   +44 26 04.78  .39772 1.3307 145.2 23.8 1284   5
2019 01 28 06  06 49 59.750   +44 25 02.28  .39822 1.3311 145.1 23.8 1287   5
2019 01 28 07  06 50 00.073   +44 23 59.88  .39872 1.3315 145.1 23.8 1291   5
2019 01 28 08  06 50 00.401   +44 22 57.58  .39922 1.3319 145.1 23.8 1295   5
2019 01 28 09  06 50 00.735   +44 21 55.37  .39972 1.3323 145.1 23.8 1299   5
2019 01 28 10  06 50 01.074   +44 20 53.26  .40023 1.3327 145.1 23.8 1302   5
2019 01 28 11  06 50 01.419   +44 19 51.25  .40073 1.3331 145.0 23.8 1306   5
2019 01 28 12  06 50 01.770   +44 18 49.33  .40123 1.3335 145.0 23.8 1310   5
2019 01 28 13  06 50 02.126   +44 17 47.51  .40174 1.3339 145.0 23.9 1314   5
2019 01 28 14  06 50 02.488   +44 16 45.79  .40224 1.3343 145.0 23.9 1317   5
2019 01 28 15  06 50 02.855   +44 15 44.16  .40275 1.3347 145.0 23.9 1321   5
2019 01 28 16  06 50 03.228   +44 14 42.63  .40325 1.3351 144.9 23.9 1325   5
2019 01 28 17  06 50 03.606   +44 13 41.19  .40375 1.3355 144.9 23.9 1329   5
2019 01 28 18  06 50 03.989   +44 12 39.84  .40426 1.3359 144.9 23.9 1332   5
2019 01 28 19  06 50 04.378   +44 11 38.59  .40476 1.3363 144.9 23.9 1336   5
2019 01 28 20  06 50 04.773   +44 10 37.44  .40527 1.3367 144.9 23.9 1340   5
2019 01 28 21  06 50 05.173   +44 09 36.37  .40577 1.3371 144.8 23.9 1344   5
2019 01 28 22  06 50 05.578   +44 08 35.40  .40628 1.3375 144.8 23.9 1347   5
2019 01 28 23  06 50 05.989   +44 07 34.53  .40678 1.3379 144.8 23.9 1351   5
2019 01 29 00  06 50 06.405   +44 06 33.75  .40729 1.3383 144.8 23.9 1355   5